Hourly Data Report for November 28, 2005

TORONTO CITY
ONTARIO

43°40'00.000" N
79°24'00.000" W
112.50 m
6158355
71508
XTO

Download Data

Hourly Data (November 2005)
Hourly Data Report for November 28, 2005
TIME
LST
Temp Definition
°C
Dew Point Definition
°C
Rel Hum Definition
%
Precip. Amount Definition
mm

Wind Dir Definition
10's deg

Wind Spd Definition
km/h
Visibility Definition
km
Stn Press Definition
kPa
Hmdx Definition


Wind Chill Definition


Weather Definition


00:00 4.2 3.2 93   LegendMM LegendMM   100.41     LegendNANA
01:00 4.6 3.5 93   LegendMM LegendMM   100.40     LegendNANA
02:00 5.2 4.3 94   LegendMM LegendMM   100.36     LegendNANA
03:00 5.4 4.6 95   LegendMM LegendMM   100.34     LegendNANA
04:00 6.1 5.1 93   LegendMM LegendMM   100.29     LegendNANA
05:00 6.4 5.6 95   LegendMM LegendMM   100.29     LegendNANA
06:00 6.7 6.0 95   LegendMM LegendMM   100.27     LegendNANA
07:00 6.8 6.2 96   LegendMM LegendMM   100.27     LegendNANA
08:00 7.2 6.5 95   LegendMM LegendMM   100.25     LegendNANA
09:00 8.5 7.1 91   LegendMM LegendMM   100.24     LegendNANA
10:00 9.3 7.1 86   LegendMM LegendMM   100.17     LegendNANA
11:00 9.8 7.5 86   LegendMM LegendMM   100.08     LegendNANA
12:00 9.7 7.5 86   LegendMM LegendMM   99.97     LegendNANA
13:00 10.3 8.1 86   LegendMM LegendMM   99.86     LegendNANA
14:00 10.9 8.7 86   LegendMM LegendMM   99.83     LegendNANA
15:00 10.8 9.1 89   LegendMM LegendMM   99.73     LegendNANA
16:00 12.1 10.5 90   LegendMM LegendMM   99.67     LegendNANA
17:00 11.6 10.7 94   LegendMM LegendMM   99.63     LegendNANA
18:00 12.2 11.4 95   LegendMM LegendMM   99.58     LegendNANA
19:00 12.0 11.4 96   LegendMM LegendMM   99.51     LegendNANA
20:00
21:00 12.5 11.7 95   LegendMM LegendMM   99.37     LegendNANA
22:00 12.6 11.6 94   LegendMM LegendMM   99.30     LegendNANA
23:00 12.4 11.3 93   LegendMM LegendMM   99.23     LegendNANA

Notes on Data Quality.

Legend

  • E = Estimated
  • M = Missing
  • NA = Not Available*
  • [empty] = Indicates an unobserved value
Date modified: